Weather in Sigulda

Latvia     57°09′23″N   24°51′02″E
temp.,
°C
wind,
m/s
gust,
m/s
humid.,
%
clouds,
%
prec.,
mm/h
press.,
hPa
HPBL,
m
13 august, sat
sat1300:00+15ene11692 0.0 102411
03:00+14e117257 0.0 102411
06:00+14ene11727 0.0 102410
09:00+21e115379 0.0 1023229
12:00+26n113916 0.0 1023939
15:00+28nnw223630 0.0 10221486
18:00+27nw334211 0.0 1020757
21:00+19n257115 0.0 102182
14 august, sun
sun1400:00+17ene247217 0.0 102171
03:00+16e22719 0.0 102022
06:00+15e227230 0.0 102029
09:00+22ese23575 0.0 1020293
12:00+27e23399 0.0 10191429
15:00+29ese233393 0.0 10172068
18:00+28ese333787 0.0 10161987
21:00+21se2466100 0.0 101758
15 august, mon
mon1500:00+19ese2664100 0.0 1017109
03:00+18ese287190 0.0 1016151
06:00+19ese287768 0.0 1016199
09:00+23se486199 0.0 1016418
12:00+28se574399 0.0 10151237
15:00+30se573866 0.0 10142119
18:00+30se464126 0.0 10142331
21:00+24se396199 0.0 1014344
16 august, tue
tue1600:00+21ese3117532 0.1 1015242
03:00+20se3117797 0.3 1015259
06:00+19se2880100 0.0 1015200
09:00+24se366368 0.0 1015324
12:00+29se464499 0.0 1015808
15:00+31se4634100 0.0 10141498
18:00+30se4743100 0.0 10141067
21:00+24se39657 0.0 1014217
17 august, wed
wed1700:00+24se4116211 0.0 1014480
03:00+21sse4117166 0.0 1015381
06:00+19sse3107625 0.0 1015302
09:00+23sse48605 0.0 1016392
12:00+26se474659 0.0 1016874
15:00+30se463430 0.0 10151831
18:00+30se45325 0.0 10152033
21:00+22ese366020 0.0 1016117